Quantico, VA

10:52 PM EDT on June 22, 2017 (GMT -0400)
Quantico Marine Corps Air Facility

Weather History for KNYG - October, 2011

Change the Weather History Date:

Saturday, October 1, 2011

  Actual Average Record
Temperature  
Mean Temperature 56 °F -  
Max Temperature 62 °F 70 °F 82 °F (1998)
Min Temperature 50 °F 52 °F 46 °F (1997)
Degree Days  
Heating Degree Days 9    
Growing Degree Days 6 (Base 50)    
Moisture  
Dew Point 43 °F    
Average Humidity 63    
Maximum Humidity 86    
Minimum Humidity 46    
Precipitation  
Precipitation 0.09 in - - ()
Sea Level Pressure  
Sea Level Pressure 29.81 in    
Wind  
Wind Speed 10 mph (NNW)    
Max Wind Speed 15 mph    
Max Gust Speed 24 mph    
Visibility 10 miles    
Events Rain    
Averages and records for this station are not official NWS values.
T = Trace of Precipitation, MM = Missing Value Source: NWS Daily Summary

Daily Weather History Graph

Daily Weather History Graph

Search for Another Location

Airport or City:

Trip Planner

Search our weather history database for the weather conditions in past years. The results will help you decide how hot, cold, wet, or windy it might be!

Date:

Astronomy

Oct. 01, 2011 Rise Set
Actual Time 7:04 AM EDT 6:52 PM EDT
Civil Twilight 6:38 AM EDT 7:18 PM EDT
Nautical Twilight 6:07 AM EDT 7:49 PM EDT
Astronomical Twilight 5:36 AM EDT 8:20 PM EDT
Moon 12:04 PM EDT (10/1) 9:52 PM EDT (10/1)
Length of Visible Light 12h 40m
Length of Day
11h 47m
Waxing Crescent, 24% of the Moon is Illuminated
Oct 1
Waxing Crescent
Oct 3
First Quarter
Oct 11
Full
Oct 19
Last Quarter
Oct 26
New

Hourly Weather History & Observations

Time (EDT) Temp. Dew Point Humidity Pressure Visibility Wind Dir Wind Speed Gust Speed Precip Events Conditions
12:56 AM 62.1 °F 46.9 °F 58% 29.72 in 10.0 mi NNW 5.8 mph - N/A   Overcast
1:56 AM 61.0 °F 46.9 °F 60% 29.73 in 10.0 mi NNW 9.2 mph - N/A   Overcast
2:56 AM 60.1 °F 46.0 °F 60% 29.73 in 10.0 mi North 10.4 mph 17.3 mph N/A   Overcast
3:56 AM 57.9 °F 43.0 °F 58% 29.73 in 10.0 mi NNW 15.0 mph 20.7 mph N/A   Overcast
4:56 AM 57.0 °F 43.0 °F 59% 29.75 in 10.0 mi North 10.4 mph 17.3 mph N/A   Overcast
5:56 AM 54.0 °F 44.1 °F 69% 29.76 in 10.0 mi NNW 9.2 mph - 0.00 in   Overcast
6:56 AM 54.0 °F 43.0 °F 66% 29.78 in 10.0 mi NNW 8.1 mph - N/A   Mostly Cloudy
7:56 AM 55.0 °F 42.1 °F 62% 29.80 in 10.0 mi NNW 5.8 mph - N/A   Mostly Cloudy
8:56 AM 54.0 °F 41.0 °F 62% 29.81 in 10.0 mi NNW 13.8 mph - N/A   Mostly Cloudy
9:56 AM 55.0 °F 42.1 °F 62% 29.82 in 10.0 mi NNW 12.7 mph 19.6 mph 0.00 in Rain Light Rain
10:56 AM 54.0 °F 42.1 °F 64% 29.84 in 10.0 mi NNW 11.5 mph 21.9 mph 0.02 in   Overcast
11:56 AM 55.9 °F 42.1 °F 60% 29.85 in 10.0 mi North 12.7 mph 19.6 mph N/A   Overcast
12:56 PM 57.9 °F 43.0 °F 58% 29.84 in 10.0 mi North 15.0 mph 18.4 mph N/A   Overcast
1:56 PM 57.9 °F 41.0 °F 53% 29.82 in 10.0 mi NNW 13.8 mph 19.6 mph N/A   Overcast
2:56 PM 61.0 °F 41.0 °F 48% 29.81 in 10.0 mi NNW 15.0 mph 24.2 mph N/A   Partly Cloudy
3:56 PM 62.1 °F 41.0 °F 46% 29.82 in 10.0 mi NNW 11.5 mph 20.7 mph N/A   Partly Cloudy
4:56 PM 57.9 °F 41.0 °F 53% 29.84 in 10.0 mi NNW 13.8 mph - N/A   Overcast
5:56 PM 55.9 °F 42.1 °F 60% 29.85 in 10.0 mi NNW 10.4 mph - N/A   Scattered Clouds
6:56 PM 54.0 °F 42.1 °F 64% 29.86 in 10.0 mi NW 9.2 mph - N/A   Mostly Cloudy
7:56 PM 53.1 °F 41.0 °F 64% 29.86 in 10.0 mi NNW 11.5 mph - N/A   Overcast
8:56 PM 52.0 °F 43.0 °F 71% 29.86 in 10.0 mi NW 12.7 mph 19.6 mph N/A   Overcast
9:56 PM 51.1 °F 45.0 °F 80% 29.86 in 10.0 mi NW 9.2 mph - 0.00 in Rain Light Rain
10:56 PM 50.0 °F 46.0 °F 86% 29.84 in 7.0 mi NW 11.5 mph - 0.05 in Rain Light Rain
11:56 PM 50.0 °F 45.0 °F 83% 29.84 in 10.0 mi NW 10.4 mph - 0.02 in Rain Light Rain